Location: Seven Kings
(51.5667°N, 0.1000°E)
Time: 05:00:29
(UTC+00:00)

SL-4 R/B - Pass Details

Date: 29 October 2020
Orbit: 427 x 665 km, 51.6° (Epoch: 25 November)

Event Time Altitude Azimuth Distance (km) Brightness Sun altitude
Rises 17:27:23 0° 275° (W) 2,416 7.0 -8.3°
Reaches altitude 10° 17:29:27 10° 275° (W) 1,565 5.8 -8.6°
Maximum altitude 17:32:57 89° 182° (S) 465 1.6 -9.2°
Enters shadow 17:36:17 13° 97° (E) 1,500 3.6 -9.7°
